TimeMDT,TemperatureF,Dew PointF,Humidity,Sea Level PressureIn,VisibilityMPH,Wind Direction,Wind SpeedMPH,Gust SpeedMPH,PrecipitationIn,Events,Conditions,WindDirDegrees,DateUTC
12:55 AM,44.1,33.1,65,30.11,10.0,NNW,10.4,-,N/A,,Clear,340,2013-10-26 06:55:00
1:55 AM,42.1,32.0,67,30.12,10.0,NNW,9.2,-,N/A,,Clear,340,2013-10-26 07:55:00
2:55 AM,39.0,32.0,76,30.15,10.0,NNW,11.5,-,N/A,,Clear,340,2013-10-26 08:55:00
3:55 AM,37.9,32.0,79,30.17,10.0,North,11.5,-,N/A,,Clear,350,2013-10-26 09:55:00
4:55 AM,37.9,32.0,79,30.20,10.0,North,12.7,-,N/A,,Clear,350,2013-10-26 10:55:00
5:55 AM,36.0,30.9,82,30.25,10.0,NNW,9.2,-,N/A,,Clear,330,2013-10-26 11:55:00
6:55 AM,35.1,32.0,89,30.31,10.0,NNW,8.1,-,N/A,,Clear,340,2013-10-26 12:55:00
7:55 AM,35.1,32.0,89,30.34,10.0,NNW,8.1,-,N/A,,Clear,330,2013-10-26 13:55:00
8:55 AM,43.0,35.1,74,30.35,10.0,NW,10.4,-,N/A,,Clear,320,2013-10-26 14:55:00
9:55 AM,48.0,35.1,61,30.33,10.0,NNW,10.4,-,N/A,,Clear,340,2013-10-26 15:55:00
10:55 AM,51.1,36.0,56,30.32,10.0,WNW,9.2,-,N/A,,Clear,300,2013-10-26 16:55:00
11:55 AM,55.0,35.1,47,30.28,10.0,NW,8.1,-,N/A,,Clear,320,2013-10-26 17:55:00
12:55 PM,57.9,35.1,42,30.25,10.0,Variable,4.6,-,N/A,,Clear,0,2013-10-26 18:55:00
1:55 PM,59.0,33.1,38,30.22,10.0,NNE,6.9,-,N/A,,Clear,20,2013-10-26 19:55:00
2:55 PM,59.0,32.0,36,30.22,10.0,WNW,4.6,-,N/A,,Clear,300,2013-10-26 20:55:00
3:55 PM,60.1,32.0,35,30.20,10.0,South,3.5,-,N/A,,Clear,170,2013-10-26 21:55:00
4:55 PM,59.0,28.9,32,30.18,10.0,WSW,3.5,-,N/A,,Clear,250,2013-10-26 22:55:00
5:55 PM,54.0,30.9,41,30.21,10.0,Calm,Calm,-,N/A,,Clear,0,2013-10-26 23:55:00
6:55 PM,37.9,30.0,73,30.26,10.0,Calm,Calm,-,N/A,,Clear,0,2013-10-27 00:55:00
7:55 PM,35.1,28.9,78,30.27,10.0,Calm,Calm,-,N/A,,Clear,0,2013-10-27 01:55:00
8:55 PM,42.1,30.9,65,30.19,10.0,SW,5.8,-,N/A,,Clear,220,2013-10-27 02:55:00
9:55 PM,45.0,32.0,60,30.16,10.0,SW,4.6,-,N/A,,Clear,220,2013-10-27 03:55:00
10:55 PM,37.9,30.9,76,30.16,10.0,North,4.6,-,N/A,,Clear,10,2013-10-27 04:55:00
11:55 PM,42.1,32.0,67,30.11,10.0,SW,5.8,-,N/A,,Clear,220,2013-10-27 05:55:00